FW7071 Weather Reports


Display with metric or nautical units.
time (UTC)temp
F
wind
direction
speed
MPH
gust
MPH
rain 1hr
in
rain 24hr
in
rain mn
in
humidity
%
barometer
mb
20260903092807 67 253 4.0 6.0 0.12 1.04 1.04 99 1018.0
20260903092306 67 82 1.0 1.0 0.05 1.02 1.02 99 1017.4
20260903091802 67 239 2.0 3.0 0.07 1.01 1.01 99 1017.9
20260903091255 67 208 1.0 2.0 0.19 1.01 1.01 99 1018.1
20260903090752 67 143 1.0 2.0 0.24 0.99 0.99 99 1018.1
20260903090250 67 115 1.0 1.0 0.17 0.97 0.97 99 1018.4
20260903085749 67 200 0.0 1.0 0.17 0.95 0.95 99 1018.7
20260903085244 68 203 0.0 1.0 0.17 0.93 0.93 99 1018.4
20260903084742 68 201 2.0 2.0 0.19 0.92 0.92 99 1018.3
20260903084237 68 219 2.0 3.0 0.19 0.90 0.90 99 1018.6
20260903083733 68 180 0.0 1.0 0.19 0.88 0.88 99 1018.5
20260903083233 68 164 0.0 0.0 0.12 0.87 0.87 99 1018.3
20260903082732 68 165 0.0 0.0 0.12 0.85 0.85 99 1018.5
20260903082228 68 222 1.0 1.0 0.24 0.85 0.85 99 1019.2
20260903081728 68 166 1.0 2.0 0.31 0.83 0.83 99 1019.2
20260903081223 68 234 0.0 1.0 0.42 0.81 0.81 99 1020.0
20260903080720 68 287 1.0 2.0 0.31 0.77 0.77 99 1020.2
20260903080217 68 239 3.0 3.0 0.05 0.73 0.73 99 1019.6
20260903075716 68 177 0.0 0.0 0.07 0.72 0.72 99 1019.2
20260903075212 68 111 0.0 1.0 0.24 0.72 0.72 99 1019.6
20260903074710 68 294 2.0 3.0 0.66 0.71 0.71 99 1020.0
20260903074206 68 81 0.0 1.0 0.50 0.66 0.66 99 1020.0
20260903073701 68 301 3.0 5.0 0.24 0.60 0.60 99 1020.5
20260903073156 68 146 0.0 1.0 0.17 0.58 0.58 99 1019.9
20260903072652 68 179 0.0 0.0 0.05 0.56 0.56 99 1019.3
20260903072148 68 284 0.0 0.0 0.00 0.55 0.55 99 1019.2
20260903071644 68 273 1.0 1.0 0.00 0.55 0.55 99 1019.4
20260903071140 68 212 1.0 1.0 0.00 0.55 0.55 99 1019.2
20260903070639 68 220 0.0 1.0 0.00 0.55 0.55 99 1019.2
20260903070136 68 222 1.0 1.0 0.00 0.55 0.55 99 1019.0
20260903065635 68 191 0.0 1.0 0.00 0.55 0.55 99 1018.9
20260903065130 68 185 0.0 0.0 0.00 0.55 0.55 99 1019.0
20260903064629 68 169 0.0 0.0 0.00 0.55 0.55 99 1019.0
20260903064125 68 209 0.0 0.0 0.00 0.55 0.55 99 1019.2
20260903063620 68 223 1.0 1.0 0.00 0.55 0.55 99 1019.3
20260903063115 68 298 0.0 0.0 0.00 0.55 0.55 99 1019.3
20260903062611 68 281 0.0 0.0 0.00 0.55 0.55 99 1019.3
20260903062106 68 290 1.0 1.0 0.00 0.55 0.55 99 1019.3
20260903061601 68 110 0.0 1.0 0.00 0.55 0.55 99 1019.1
20260903061101 68 143 0.0 0.0 0.00 0.55 0.55 99 1018.9
20260903060600 68 103 0.0 1.0 0.07 0.55 0.55 99 1019.1
20260903060056 68 157 0.0 0.0 0.19 0.55 0.55 99 1019.1
20260903055553 68 144 1.0 1.0 0.17 0.54 0.54 99 1019.4
20260903055052 68 101 0.0 1.0 0.12 0.52 0.52 99 1019.1
20260903054547 68 88 2.0 3.0 0.26 0.51 0.51 99 1018.3
20260903054043 68 126 2.0 3.0 1.13 0.50 0.50 99 1018.4
20260903053538 68 129 4.0 5.0 1.51 0.46 0.46 99 1018.4
20260903053034 69 195 0.0 0.0 1.06 0.30 0.30 99 1020.5
20260903052530 69 111 1.0 2.0 0.59 0.19 0.19 99 1020.7
20260903052026 69 89 3.0 5.0 0.24 0.11 0.11 99 1021.0
20260903051525 69 322 2.0 3.0 0.24 0.09 0.09 99 1020.8
20260903051021 69 97 1.0 1.0 0.24 0.07 0.07 99 1021.0
20260903050520 69 40 1.0 1.0 0.12 0.04 0.04 99 1020.8
20260903050016 69 104 0.0 0.0 0.12 0.03 0.03 99 1020.4
20260903045510 69 68 1.0 1.0 0.05 0.02 0.02 99 1020.4
20260903045007 69 100 0.0 0.0 0.00 0.01 0.01 99 1020.7
20260903044502 70 271 1.0 1.0 0.00 0.01 0.01 99 1020.5
20260903043958 70 53 3.0 3.0 0.00 0.01 0.01 99 1020.4
20260903043453 70 116 1.0 1.0 0.00 0.01 0.01 99 1020.1
20260903042951 70 156 0.0 0.0 0.07 0.01 0.01 99 1020.0
20260903042447 70 75 1.0 1.0 0.07 0.01 0.01 99 1019.7
20260903041943 70 107 1.0 1.0 0.00 0.00 0.00 99 1019.7
20260903041439 70 93 0.0 0.0 0.00 0.00 0.00 99 1020.0
20260903040935 70 61 1.0 1.0 0.00 0.00 0.00 99 1020.2
20260903040433 70 71 1.0 1.0 0.00 0.00 0.00 99 1020.0
20260903035930 70 75 0.0 0.0 0.00 0.07 0.07 99 1020.2
20260903035425 70 76 1.0 1.0 0.00 0.07 0.07 99 1020.0
20260903034920 70 96 1.0 1.0 0.00 0.07 0.07 99 1020.0
20260903034415 70 131 0.0 0.0 0.00 0.07 0.07 99 1020.4
20260903033910 70 79 1.0 1.0 0.00 0.07 0.07 99 1020.6
20260903033405 70 76 0.0 0.0 0.00 0.07 0.07 99 1020.6
20260903032905 70 132 0.0 1.0 0.00 0.07 0.07 99 1020.3
20260903032401 70 159 0.0 0.0 0.00 0.07 0.07 99 1020.5
20260903031856 70 131 1.0 1.0 0.00 0.07 0.07 99 1020.1
20260903031355 70 131 0.0 0.0 0.00 0.07 0.07 99 1020.1
20260903030851 70 127 0.0 0.0 0.00 0.07 0.07 99 1019.9
20260903030347 70 164 0.0 0.0 0.00 0.07 0.07 99 1020.2
20260903025843 70 249 0.0 0.0 0.00 0.07 0.07 99 1020.1
20260903025338 70 297 2.0 2.0 0.00 0.07 0.07 99 1020.2
20260903024838 70 187 0.0 1.0 0.00 0.07 0.07 99 1019.9
20260903024332 70 152 0.0 0.0 0.00 0.07 0.07 99 1020.1
20260903023827 70 142 0.0 0.0 0.00 0.07 0.07 99 1019.7
20260903023323 70 141 0.0 0.0 0.00 0.07 0.07 99 1020.2
20260903022818 70 146 0.0 0.0 0.00 0.07 0.07 99 1020.1
20260903022311 70 91 0.0 1.0 0.00 0.07 0.07 99 1020.3
20260903021811 70 160 0.0 0.0 0.00 0.07 0.07 99 1020.3
20260903021307 70 119 0.0 0.0 0.00 0.07 0.07 99 1020.2
20260903020806 70 126 0.0 0.0 0.00 0.07 0.07 99 1020.1
20260903020301 70 143 0.0 0.0 0.00 0.07 0.07 99 1020.0
20260903015756 70 142 0.0 0.0 0.00 0.07 0.07 99 1019.9
20260903015252 70 153 0.0 0.0 0.00 0.07 0.07 99 1020.0
20260903014747 70 173 0.0 0.0 0.00 0.07 0.07 99 1019.9
20260903014246 70 141 0.0 0.0 0.00 0.07 0.07 99 1020.0
20260903013742 70 124 0.0 1.0 0.00 0.07 0.07 99 1019.8
20260903013241 70 164 0.0 0.0 0.00 0.07 0.07 99 1019.9
20260903012739 70 132 0.0 0.0 0.00 0.07 0.07 99 1020.0
20260903012234 70 102 0.0 1.0 0.00 0.07 0.07 99 1019.8
20260903011728 70 115 0.0 0.0 0.00 0.07 0.07 99 1019.8
20260903011222 70 113 1.0 1.0 0.00 0.07 0.07 99 1020.0
20260903010717 70 140 0.0 0.0 0.00 0.07 0.07 99 1019.9
20260903010217 70 128 1.0 1.0 0.00 0.07 0.07 99 1020.0
20260903005716 70 121 0.0 0.0 0.00 0.07 0.07 99 1020.4
20260903005211 70 112 0.0 1.0 0.00 0.07 0.07 99 1020.3
20260903004708 70 71 0.0 0.0 0.00 0.07 0.07 99 1020.3
20260903004203 70 93 1.0 1.0 0.00 0.07 0.07 99 1020.3
20260903003658 70 88 1.0 1.0 0.00 0.07 0.07 99 1020.1
20260903003153 70 120 0.0 0.0 0.00 0.07 0.07 99 1020.2
20260903002648 70 121 0.0 0.0 0.00 0.07 0.07 99 1020.1
20260903002142 70 103 0.0 1.0 0.00 0.07 0.07 99 1019.9
20260903001637 70 32 1.0 2.0 0.00 0.07 0.07 99 1019.9
20260903001136 70 58 1.0 1.0 0.00 0.07 0.07 99 1019.9
20260903000627 70 109 1.0 1.0 0.00 0.07 0.07 99 1019.5
20260903000126 70 98 1.0 1.0 0.00 0.07 0.07 99 1019.6
20260902235625 70 131 0.0 0.0 0.00 0.07 0.07 99 1019.8
20260902235120 70 117 1.0 1.0 0.00 0.07 0.07 99 1019.7
20260902234614 70 50 2.0 2.0 0.00 0.07 0.07 99 1019.7
20260902234113 70 89 2.0 3.0 0.00 0.07 0.07 99 1019.3
20260902233608 70 113 1.0 2.0 0.00 0.07 0.07 99 1019.5
20260902233102 70 126 0.0 0.0 0.00 0.07 0.07 99 1019.7
20260902232602 70 65 2.0 2.0 0.00 0.07 0.07 99 1019.7
20260902232056 70 87 1.0 2.0 0.00 0.07 0.07 99 1019.6
20260902231556 70 80 1.0 1.0 0.00 0.07 0.07 99 1019.7
20260902231051 70 74 1.0 1.0 0.00 0.07 0.07 99 1019.6
20260902230551 70 138 0.0 0.0 0.00 0.07 0.07 99 1020.0
20260902230050 70 26 2.0 2.0 0.00 0.07 0.07 99 1019.7
20260902225545 71 96 5.0 7.0 0.00 0.07 0.07 99 1019.7
20260902225044 71 123 1.0 1.0 0.00 0.07 0.07 99 1019.7
20260902224543 71 107 2.0 3.0 0.00 0.07 0.07 99 1019.8
20260902224039 71 107 2.0 3.0 0.00 0.07 0.07 99 1019.8
20260902223536 71 75 1.0 1.0 0.00 0.07 0.07 99 1020.0
20260902223034 71 109 0.0 1.0 0.00 0.07 0.07 99 1020.1
20260902222533 71 86 1.0 2.0 0.00 0.07 0.07 99 1020.2
20260902222032 71 86 1.0 2.0 0.00 0.07 0.07 99 1020.3
20260902221527 71 56 1.0 2.0 0.00 0.07 0.07 99 1020.4
20260902221022 71 68 0.0 1.0 0.00 0.07 0.07 99 1019.8
20260902220517 71 104 0.0 0.0 0.00 0.07 0.07 99 1020.1
20260902220012 71 89 1.0 1.0 0.00 0.07 0.07 99 1020.2
20260902215508 71 103 0.0 0.0 0.00 0.07 0.07 99 1020.7
20260902215003 71 267 0.0 0.0 0.00 0.07 0.07 99 1020.7
20260902214503 71 114 1.0 1.0 0.00 0.07 0.07 99 1020.4
20260902214002 71 108 0.0 0.0 0.00 0.07 0.07 99 1020.5
20260902213458 71 93 1.0 1.0 0.00 0.07 0.07 99 1020.7
20260902212956 71 114 0.0 1.0 0.00 0.07 0.07 99 1020.5
20260902212453 71 121 1.0 1.0 0.00 0.07 0.07 99 1020.2
20260902211949 71 61 2.0 2.0 0.00 0.07 0.07 99 1020.2
20260902211444 71 84 3.0 5.0 0.00 0.07 0.07 99 1020.2
20260902210939 71 100 3.0 3.0 0.00 0.07 0.07 99 1020.1
20260902210434 71 36 3.0 3.0 0.00 0.07 0.07 99 1019.9
20260902205932 71 70 1.0 1.0 0.00 0.07 0.07 99 1019.9
20260902205428 71 124 1.0 1.0 0.00 0.07 0.07 99 1019.9
20260902204923 71 107 2.0 3.0 0.00 0.07 0.07 99 1019.5
20260902204423 71 114 1.0 1.0 0.00 0.07 0.07 99 1019.8
20260902203919 71 94 1.0 1.0 0.00 0.07 0.07 99 1020.0
20260902203414 71 101 0.0 1.0 0.00 0.07 0.07 99 1019.9
20260902202913 71 108 1.0 1.0 0.00 0.07 0.07 99 1019.8
20260902202409 71 77 1.0 1.0 0.00 0.07 0.07 99 1020.1
20260902201906 71 27 3.0 3.0 0.00 0.07 0.07 99 1020.0
20260902201405 71 50 1.0 1.0 0.00 0.07 0.07 99 1020.3
20260902200900 71 112 1.0 1.0 0.00 0.07 0.07 99 1020.4
20260902200355 71 93 0.0 0.0 0.00 0.07 0.07 99 1020.6
20260902195850 71 128 1.0 1.0 0.00 0.07 0.07 99 1020.3
20260902195349 71 128 0.0 1.0 0.00 0.07 0.07 99 1020.3
20260902194845 71 102 0.0 0.0 0.00 0.07 0.07 99 1020.4
20260902194339 71 133 2.0 2.0 0.00 0.07 0.07 99 1020.5
20260902193834 71 93 2.0 3.0 0.00 0.07 0.07 99 1020.3
20260902193330 71 76 2.0 2.0 0.00 0.07 0.07 99 1020.3
20260902192829 71 86 1.0 2.0 0.00 0.07 0.07 99 1020.1
20260902192327 71 86 2.0 2.0 0.00 0.07 0.07 99 1020.5
20260902191822 71 137 0.0 1.0 0.00 0.07 0.07 99 1020.3
20260902191317 71 88 2.0 2.0 0.00 0.07 0.07 99 1020.3
20260902190813 71 73 2.0 2.0 0.00 0.07 0.07 99 1020.4
20260902190312 70 66 2.0 3.0 0.00 0.07 0.07 99 1020.3
20260902185808 71 89 0.0 1.0 0.00 0.07 0.07 99 1020.5
20260902185306 70 9 1.0 2.0 0.00 0.07 0.07 99 1020.5
20260902184759 70 129 1.0 1.0 0.00 0.07 0.07 99 1020.7
20260902184254 71 118 1.0 1.0 0.00 0.07 0.07 99 1020.8
20260902183750 71 71 1.0 2.0 0.00 0.07 0.07 99 1021.1
20260902183246 71 68 1.0 1.0 0.00 0.07 0.07 99 1021.0
20260902182742 71 106 0.0 0.0 0.00 0.07 0.07 99 1021.3
20260902182238 71 162 0.0 0.0 0.00 0.07 0.07 99 1021.5
20260902181735 0 0.0 0.0 0.00 0.00 0.00 1021.2
20260902181234 0 0.0 0.0 0.00 0.00 0.00 1021.4
20260902180729 71 227 0.0 0.0 0.00 0.07 0.07 99 1021.5
20260902180224 71 227 0.0 0.0 0.00 0.07 0.07 99 1021.5
20260902175719 71 227 0.0 0.0 0.00 0.07 0.07 99 1021.5
20260902175215 71 244 0.0 0.0 0.07 0.07 0.07 99 1021.8
20260902174711 71 245 0.0 0.0 0.00 0.06 0.06 99 1022.1
20260902174207 71 266 0.0 1.0 0.05 0.06 0.06 99 1021.6
20260902173702 71 257 1.0 1.0 0.05 0.06 0.06 99 1021.9
20260902173157 71 281 1.0 1.0 0.07 0.05 0.05 99 1021.7
20260902172657 70 176 0.0 0.0 0.07 0.05 0.05 99 1021.6
20260902172156 70 142 0.0 0.0 0.05 0.04 0.04 99 1021.5
20260902171651 70 156 0.0 0.0 0.12 0.04 0.04 99 1021.2
20260902171147 70 133 0.0 0.0 0.07 0.03 0.03 99 1021.2
20260902170643 70 138 0.0 1.0 0.00 0.02 0.02 99 1021.4
20260902170138 70 141 0.0 0.0 0.00 0.02 0.02 99 1022.0
20260902165633 71 131 0.0 0.0 0.00 0.02 0.02 99 1022.3
20260902165132 71 163 0.0 0.0 0.00 0.02 0.02 99 1022.5
20260902164628 70 104 0.0 0.0 0.00 0.02 0.02 99 1022.2
20260902164127 70 150 0.0 0.0 0.00 0.02 0.02 99 1022.6
20260902163622 70 38 1.0 2.0 0.00 0.02 0.02 99 1022.3
20260902163121 70 133 0.0 0.0 0.00 0.02 0.02 99 1022.0
20260902162620 70 153 0.0 0.0 0.00 0.02 0.02 99 1021.8
20260902162115 70 141 2.0 2.0 0.00 0.02 0.02 99 1022.1
20260902161610 70 145 0.0 0.0 0.00 0.02 0.02 99 1022.2
20260902161106 70 127 1.0 1.0 0.00 0.02 0.02 99 1022.4
20260902160602 70 148 0.0 0.0 0.00 0.02 0.02 99 1022.3
20260902160057 70 66 3.0 3.0 0.00 0.02 0.02 99 1022.0
20260902155555 70 137 0.0 0.0 0.00 0.02 0.02 99 1022.2
20260902155054 70 22 0.0 0.0 0.00 0.02 0.02 99 1022.0
20260902154549 70 136 1.0 2.0 0.00 0.02 0.02 99 1021.8
20260902154044 70 138 0.0 1.0 0.00 0.02 0.02 99 1021.8
20260902153543 70 141 0.0 0.0 0.00 0.02 0.02 99 1021.7
20260902153039 69 136 0.0 1.0 0.00 0.02 0.02 99 1021.8
20260902152535 70 118 0.0 1.0 0.00 0.02 0.02 99 1021.8
20260902152030 70 140 0.0 0.0 0.00 0.02 0.02 99 1021.5
20260902151526 70 84 2.0 2.0 0.00 0.02 0.02 99 1021.6
20260902151025 70 163 0.0 0.0 0.00 0.02 0.02 99 1021.6
20260902150521 70 134 1.0 1.0 0.00 0.02 0.02 99 1021.6
20260902150016 70 138 0.0 0.0 0.00 0.02 0.02 99 1021.8
20260902145511 69 152 0.0 1.0 0.00 0.02 0.02 99 1022.0
20260902145011 69 106 2.0 2.0 0.00 0.02 0.02 99 1021.9
20260902144508 69 64 1.0 1.0 0.00 0.02 0.02 99 1022.1
20260902144002 69 353 0.0 1.0 0.00 0.02 0.02 99 1021.9
20260902143457 69 116 1.0 2.0 0.00 0.02 0.02 99 1021.9
20260902142953 69 132 0.0 0.0 0.00 0.02 0.02 99 1021.7
20260902142448 69 118 0.0 1.0 0.00 0.02 0.02 99 1021.9
20260902141943 69 147 0.0 0.0 0.00 0.02 0.02 99 1022.1
20260902141438 69 107 0.0 0.0 0.00 0.02 0.02 99 1022.1
20260902140938 69 62 0.0 1.0 0.00 0.02 0.02 99 1021.9
20260902140433 69 32 2.0 2.0 0.00 0.02 0.02 99 1022.0
20260902135933 69 86 1.0 1.0 0.00 0.02 0.02 99 1021.6
20260902135429 69 134 4.0 6.0 0.00 0.02 0.02 99 1021.5
20260902134927 69 64 1.0 3.0 0.00 0.02 0.02 99 1021.7
20260902134423 69 83 1.0 2.0 0.00 0.02 0.02 99 1021.4
20260902133918 69 90 1.0 1.0 0.00 0.02 0.02 99 1021.6
20260902133413 69 63 3.0 5.0 0.00 0.02 0.02 99 1021.6
20260902132908 69 122 2.0 2.0 0.00 0.02 0.02 99 1021.7
20260902132403 69 181 1.0 2.0 0.00 0.02 0.02 99 1021.7
20260902131858 69 73 3.0 3.0 0.00 0.02 0.02 99 1021.3
20260902131355 69 101 1.0 1.0 0.00 0.02 0.02 99 1021.7
20260902130854 69 73 1.0 1.0 0.00 0.02 0.02 99 1021.2
20260902130350 69 86 1.0 2.0 0.00 0.02 0.02 99 1021.1
20260902125845 69 90 1.0 2.0 0.00 0.02 0.02 99 1021.2
20260902125341 69 134 1.0 1.0 0.00 0.02 0.02 99 1021.1
20260902124837 69 93 3.0 3.0 0.00 0.02 0.02 99 1021.1
20260902124333 69 101 1.0 1.0 0.00 0.02 0.02 99 1021.3
20260902123827 69 95 2.0 2.0 0.00 0.02 0.02 99 1021.1
20260902123324 68 106 3.0 3.0 0.00 0.02 0.02 99 1021.2
20260902122822 69 62 1.0 1.0 0.00 0.02 0.02 99 1021.0
20260902122318 68 141 0.0 1.0 0.00 0.02 0.02 99 1021.0
20260902121818 68 54 1.0 2.0 0.00 0.02 0.02 99 1021.1
20260902121313 68 126 1.0 1.0 0.00 0.02 0.02 99 1020.9
20260902120808 68 136 1.0 1.0 0.00 0.02 0.02 99 1021.1
20260902120305 68 68 1.0 2.0 0.00 0.02 0.02 99 1021.1
20260902115759 68 38 2.0 3.0 0.00 0.02 0.02 99 1021.0
20260902115255 68 133 2.0 2.0 0.00 0.02 0.02 99 1020.9
20260902114746 68 127 0.0 1.0 0.00 0.02 0.02 99 1021.0
20260902114242 68 63 2.0 2.0 0.00 0.02 0.02 99 1020.8
20260902113742 68 71 1.0 1.0 0.00 0.02 0.02 99 1020.6
20260902113237 68 129 1.0 1.0 0.00 0.02 0.02 99 1020.6
20260902112736 68 135 1.0 2.0 0.00 0.02 0.02 99 1020.6
20260902112234 68 90 3.0 3.0 0.05 0.02 0.02 99 1020.8
20260902111729 68 90 3.0 3.0 0.05 0.02 0.02 99 1020.6
20260902111225 69 152 2.0 3.0 0.00 0.01 0.01 99 1020.8
20260902110720 69 152 2.0 3.0 0.00 0.01 0.01 99 1020.7
20260902110216 69 152 2.0 3.0 0.00 0.01 0.01 99 1020.8
20260902105715 69 107 0.0 1.0 0.00 0.01 0.01 99 1020.8
20260902105211 69 107 0.0 1.0 0.00 0.01 0.01 99 1020.8
20260902104706 69 101 0.0 1.0 0.00 0.01 0.01 99 1020.9
20260902104202 69 153 0.0 0.0 0.00 0.01 0.01 99 1020.6
20260902103701 69 89 0.0 1.0 0.00 0.01 0.01 99 1020.9
20260902103156 69 126 1.0 1.0 0.00 0.01 0.01 99 1020.4
20260902102652 69 115 2.0 2.0 0.00 0.01 0.01 99 1020.5
20260902102150 69 85 1.0 1.0 0.00 0.01 0.01 99 1020.5
20260902101645 69 108 1.0 1.0 0.00 0.01 0.01 99 1020.4
20260902101144 69 123 1.0 1.0 0.00 0.01 0.01 99 1020.5
20260902100639 69 89 1.0 1.0 0.00 0.01 0.01 99 1020.3
20260902100134 69 88 1.0 2.0 0.00 0.01 0.01 99 1020.3
20260902095632 69 128 1.0 2.0 0.00 0.01 0.01 99 1020.2
20260902095127 69 108 2.0 2.0 0.00 0.01 0.01 99 1020.4
20260902094622 69 93 1.0 1.0 0.00 0.01 0.01 99 1020.3
20260902094118 69 115 1.0 2.0 0.00 0.01 0.01 99 1020.3
20260902093617 69 96 1.0 1.0 0.00 0.01 0.01 99 1020.4
20260902093113 69 65 0.0 1.0 0.00 0.01 0.01 99 1020.3